Regional Weather Roundup
Issued by NWS Jackson, KY

Home | Current Version | Previous Version | Graphics & Text | Print | Product List | Glossary On
Versions: 1 2 3 4 5 6 7 8 9 10 11 12 13 14 15 16 17 18 19 20 21 22 23 24 25 26 27 28 29 30 31 32 33 34 35 36 37 38 39 40 41 42 43 44 45 46 47 48 49 50
000
ASUS43 KJKL 192210
RWRJKL

EAST KENTUCKY HOURLY WEATHER ROUNDUP
NATIONAL WEATHER SERVICE JACKSON KY
600 PM EDT THU OCT 19 2017

NOTE: "FAIR" INDICATES FEW OR NO CLOUDS BELOW 12,000 FEET WITH
NO SIGNIFICANT WEATHER AND/OR OBSTRUCTIONS TO VISIBILITY.

* THESE REPORTS ARE NOT UNDER NWS QUALITY CONTROL AND MAY NOT
  REPORT WEATHER SUCH AS PRECIPITATION AND FOG.

KYZ079-080-083-085-087-088-110-112-115-119-120-192300
...EASTERN KENTUCKY...

CITY           SKY/WX    TMP DP  RH WIND       PRES   REMARKS
JACKSON        CLEAR     68  47  46 CALM      30.25S
LONDON         CLEAR     69  43  38 SW3       30.25S
SOMERSET*      CLEAR     68  45  42 W3        30.26R
MONTICELLO*    SUNNY     70  48  45 W13       30.26S
WILLIAMSBURG*  CLEAR     70  45  40 CALM      30.24F
MIDDLESBORO*   CLEAR     68  47  46 S3        30.26R
HARLAN APT*    CLEAR     70  41  35 W3        30.25S
PIKE CO APT*     N/A     69  45  42 CALM      30.24F
BIG SANDY APT* CLEAR     69  47  44 W3        30.24S
MOREHEAD APT*  CLEAR     70  46  43 SW7       30.25R
$$

KYZ035-036-041-042-044-050-067-078-099-192300
...CENTRAL KENTUCKY...

CITY           SKY/WX    TMP DP  RH WIND       PRES   REMARKS
MT STERLING*   CLEAR     70  48  46 W5        30.25R
FLEMING/MASON* CLEAR     68  50  53 SW7       30.24R
DANVILLE*      CLEAR     70  46  43 SW5       30.24S
LEXINGTON      CLEAR     69  50  50 S5        30.23S
FRANKFORT      CLEAR     71  48  43 SW7       30.21S
LOUISVILLE     MOSUNNY   73  50  44 SW9       30.20S
LEBANON*         N/A     70  48  46 S5        30.23S
GLASGOW*       SUNNY     72  49  44 SW5       30.22F
BOWLING GREEN  SUNNY     74  49  41 S7        30.22F
$$

KYZ091>093-OHZ055-061-077-WVZ005-015-034-035-042-192300
...SOUTHERN OHIO/WEST VIRGINIA...

CITY           SKY/WX    TMP DP  RH WIND       PRES   REMARKS
COVINGTON      PTCLDY    70  53  54 SW7       30.20S
COLUMBUS       PTCLDY    72  49  44 SW14      30.16S
DAYTON         PTCLDY    70  52  52 SW13      30.18S
WILMINGTON     CLEAR     68  51  54 SW14      30.19S
HUNTINGTON     CLEAR     70  46  42 SW5       30.21S
CHARLESTON     CLEAR     70  44  39 SW6       30.22S
PINEVILLE*     CLEAR     60  45  57 MISG      30.30R
BECKLEY        CLEAR     66  36  32 W7        30.26S
BLUEFIELD      CLEAR     65  35  33 NW7       30.28R
LOGAN CO APT*    N/A     68  43  40 CALM      30.24S
$$

VAZ002-007-008-TNZ017-027-036-066-071-192300
...SOUTHWEST VIRGINIA/EAST TENNESSEE...

CITY           SKY/WX    TMP DP  RH WIND       PRES   REMARKS
WISE*          CLEAR     66  43  42 SW7       30.29S
JONESVILLE*      N/A     70  43  37 CALM      30.28R
ABINGDON*      CLEAR     69  38  31 W6        30.27S
BRISTOL        CLEAR     70  42  36 W6        30.25F
MORRISTOWN*    CLEAR     68  45  42 NW5       30.25S
SEVIERVILLE*   CLEAR     72  36  26 CALM      30.24S
KNOXVILLE      PTCLDY    71  44  37 CALM      30.24S
LAFOLLETTE*    CLEAR     70  50  49 S5        30.28S
OAK RIDGE      CLEAR     70  46  42 CALM      30.26S
CROSSVILLE     SUNNY     69  43  38 CALM      30.27S
NASHVILLE      MOSUNNY   74  45  35 SE5       30.23F
$$

...KEY TO REMARKS...
VSB - VISIBILITY IN MILES
WCI - WIND CHILL INDEX
HX  - HEAT INDEX

$$



USA.gov is the U.S. government's official web portal to all federal, state and local government web resources and services.